Petersburg, VA

1:18 AM EDT on October 24, 2017 (GMT -0400)
Dinwiddie County

Weather History for KPTB - November, 2012

Change the Weather History Date:

Thursday, November 1, 2012

  Actual Average (KRIC) Record (KRIC)
Temperature  
Mean Temperature 50 °F -  
Max Temperature 57 °F 68 °F 86 °F (1974)
Min Temperature 42 °F 45 °F 26 °F (1954)
Degree Days  
Heating Degree Days 16    
Moisture  
Dew Point 37 °F    
Average Humidity 65    
Maximum Humidity 87    
Minimum Humidity 41    
Precipitation  
Precipitation 0.00 in - - ()
Sea Level Pressure  
Sea Level Pressure 29.73 in    
Wind  
Wind Speed 4 mph (WSW)    
Max Wind Speed 12 mph    
Max Gust Speed 16 mph    
Visibility 10 miles    
Events Rain    
Averages and records for this station are not official NWS values.
T = Trace of Precipitation, MM = Missing Value Source: NWS Daily Summary

Daily Weather History Graph

Daily Weather History Graph

Search for Another Location

Airport or City:

Trip Planner

Search our weather history database for the weather conditions in past years. The results will help you decide how hot, cold, wet, or windy it might be!

Date:

Astronomy

Nov. 01, 2012 Rise Set
Actual Time 7:34 AM EDT 6:11 PM EDT
Civil Twilight 7:07 AM EDT 6:38 PM EDT
Nautical Twilight 6:37 AM EDT 7:09 PM EDT
Astronomical Twilight 6:06 AM EDT 7:39 PM EDT
Moon 8:10 PM EDT (11/1) 10:02 AM EDT (11/1)
Length of Visible Light 11h 30m
Length of Day
10h 36m
Waning Gibbous, 93% of the Moon is Illuminated
Nov 1
Waning Gibbous
Nov 6
Last Quarter
Nov 13
New
Nov 20
First Quarter
Nov 28
Full

Hourly Weather History & Observations

Time (EDT) Temp. Windchill Dew Point Humidity Pressure Visibility Wind Dir Wind Speed Gust Speed Precip Events Conditions
12:15 AM 42.8 °F - 39.2 °F 87% 29.71 in 10.0 mi Calm Calm - N/A   Unknown
12:35 AM 42.8 °F 41.1 °F 39.2 °F 87% 29.71 in 10.0 mi SSW 3.5 mph - N/A   Unknown
12:55 AM 42.8 °F 41.1 °F 39.2 °F 87% 29.71 in 10.0 mi SW 3.5 mph - N/A   Unknown
1:15 AM 44.6 °F 42.2 °F 37.4 °F 76% 29.71 in 10.0 mi WSW 4.6 mph - N/A   Unknown
1:35 AM 44.6 °F 43.1 °F 37.4 °F 76% 29.71 in 10.0 mi SW 3.5 mph - N/A   Unknown
1:55 AM 44.6 °F 43.1 °F 39.2 °F 81% 29.71 in 10.0 mi WSW 3.5 mph - N/A   Unknown
2:15 AM 44.6 °F - 39.2 °F 81% 29.70 in 10.0 mi Calm Calm - N/A   Unknown
2:35 AM 44.6 °F - 37.4 °F 76% 29.70 in 10.0 mi Calm Calm - N/A   Unknown
2:55 AM 44.6 °F - 39.2 °F 81% 29.71 in 10.0 mi Calm Calm - N/A   Unknown
3:15 AM 44.6 °F - 39.2 °F 81% 29.70 in 10.0 mi Calm Calm - N/A   Unknown
3:35 AM 44.6 °F - 39.2 °F 81% 29.70 in 10.0 mi Calm Calm - N/A   Scattered Clouds
3:55 AM 44.6 °F - 37.4 °F 76% 29.70 in 10.0 mi Calm Calm - N/A   Scattered Clouds
4:15 AM 44.6 °F 43.1 °F 37.4 °F 76% 29.70 in 10.0 mi SW 3.5 mph - N/A   Scattered Clouds
4:35 AM 44.6 °F 43.1 °F 39.2 °F 81% 29.70 in 10.0 mi SW 3.5 mph - N/A   Mostly Cloudy
4:55 AM 44.6 °F 42.2 °F 39.2 °F 81% 29.70 in 10.0 mi SW 4.6 mph - N/A   Overcast
5:15 AM 46.4 °F 43.5 °F 37.4 °F 71% 29.70 in 10.0 mi SW 5.8 mph - N/A   Overcast
5:35 AM 46.4 °F 44.3 °F 37.4 °F 71% 29.70 in 10.0 mi WSW 4.6 mph - N/A   Overcast
5:55 AM 46.4 °F 44.3 °F 39.2 °F 76% 29.70 in 10.0 mi WSW 4.6 mph - N/A   Mostly Cloudy
6:15 AM 46.4 °F 45.2 °F 39.2 °F 76% 29.70 in 10.0 mi SW 3.5 mph - N/A   Mostly Cloudy
6:35 AM 46.4 °F 45.2 °F 39.2 °F 76% 29.70 in 10.0 mi WSW 3.5 mph - N/A Rain Light Rain
7:15 AM 44.6 °F 42.2 °F 39.2 °F 81% 29.71 in 10.0 mi SW 4.6 mph - N/A   Light Drizzle
7:35 AM 44.6 °F 42.2 °F 39.2 °F 81% 29.71 in 10.0 mi WSW 4.6 mph - N/A   Overcast
7:55 AM 44.6 °F 42.2 °F 39.2 °F 81% 29.72 in 10.0 mi WSW 4.6 mph - N/A   Overcast
8:35 AM 46.4 °F 44.3 °F 39.2 °F 76% 29.73 in 10.0 mi WSW 4.6 mph - N/A   Scattered Clouds
8:55 AM 46.4 °F 42.9 °F 39.2 °F 76% 29.73 in 10.0 mi WSW 6.9 mph - N/A   Clear
9:35 AM 48.2 °F - 37.4 °F 66% 29.74 in 10.0 mi SW 6.9 mph - N/A   Clear
10:15 AM 50.0 °F - 37.4 °F 62% 29.75 in 10.0 mi WSW 6.9 mph - N/A   Clear
10:35 AM 51.8 °F - 37.4 °F 58% 29.75 in 10.0 mi West 8.1 mph - N/A   Scattered Clouds
10:55 AM 51.8 °F - 35.6 °F 54% 29.75 in 10.0 mi West 10.4 mph - N/A   Clear
11:15 AM 51.8 °F - 37.4 °F 58% 29.75 in 10.0 mi WSW 6.9 mph - N/A   Clear
11:35 AM 53.6 °F - 37.4 °F 54% 29.74 in 10.0 mi West 9.2 mph - N/A   Clear
11:55 AM 55.4 °F - 37.4 °F 51% 29.74 in 10.0 mi West 8.1 mph - N/A   Clear
12:15 PM 57.2 °F - 35.6 °F 44% 29.73 in 10.0 mi West 9.2 mph - N/A   Clear
12:35 PM 57.2 °F - 35.6 °F 44% 29.73 in 10.0 mi WNW 10.4 mph - N/A   Scattered Clouds
12:55 PM 57.2 °F - 33.8 °F 41% 29.72 in 10.0 mi WNW 10.4 mph - N/A   Scattered Clouds
1:15 PM 57.2 °F - 33.8 °F 41% 29.71 in 10.0 mi WNW 10.4 mph 16.1 mph N/A   Clear
1:35 PM 57.2 °F - 35.6 °F 44% 29.70 in 10.0 mi West 6.9 mph - N/A   Clear
1:55 PM 57.2 °F - 35.6 °F 44% 29.70 in 10.0 mi WNW 8.1 mph - N/A   Mostly Cloudy
2:15 PM 57.2 °F - 35.6 °F 44% 29.70 in 10.0 mi West 6.9 mph - N/A   Mostly Cloudy
2:35 PM 57.2 °F - 35.6 °F 44% 29.69 in 10.0 mi WSW 10.4 mph - N/A   Scattered Clouds
2:55 PM 57.2 °F - 33.8 °F 41% 29.69 in 10.0 mi WSW 9.2 mph - N/A   Clear
3:15 PM 57.2 °F - 35.6 °F 44% 29.69 in 10.0 mi WSW 10.4 mph - N/A   Mostly Cloudy
3:35 PM 57.2 °F - 35.6 °F 44% 29.69 in 10.0 mi WSW 6.9 mph - N/A   Overcast
3:55 PM 57.2 °F - 35.6 °F 44% 29.70 in 10.0 mi West 5.8 mph - N/A   Overcast
4:15 PM 57.2 °F - 35.6 °F 44% 29.70 in 10.0 mi West 11.5 mph - N/A   Overcast
4:35 PM 57.2 °F - 35.6 °F 44% 29.71 in 10.0 mi WNW 9.2 mph 16.1 mph N/A   Scattered Clouds
4:55 PM 55.4 °F - 33.8 °F 44% 29.71 in 10.0 mi West 9.2 mph - N/A   Clear
5:15 PM 53.6 °F - 33.8 °F 47% 29.72 in 10.0 mi West 6.9 mph - N/A   Clear
5:35 PM 53.6 °F - 35.6 °F 51% 29.72 in 10.0 mi WSW 6.9 mph - N/A   Clear
5:55 PM 53.6 °F - 35.6 °F 51% 29.73 in 10.0 mi West 8.1 mph - N/A   Clear
6:15 PM 51.8 °F - 35.6 °F 54% 29.73 in 10.0 mi West 6.9 mph - N/A   Clear
6:35 PM 50.0 °F - 35.6 °F 58% 29.74 in 10.0 mi West 4.6 mph - N/A   Clear
6:55 PM 46.4 °F 44.3 °F 35.6 °F 66% 29.75 in 10.0 mi WSW 4.6 mph - N/A   Clear
7:15 PM 46.4 °F - 37.4 °F 71% 29.76 in 10.0 mi Calm Calm - N/A   Clear
7:35 PM 42.8 °F - 39.2 °F 87% 29.76 in 10.0 mi Calm Calm - N/A   Clear
7:55 PM 42.8 °F - 39.2 °F 87% 29.76 in 10.0 mi Calm Calm - N/A   Clear
8:15 PM 44.6 °F 43.1 °F 39.2 °F 81% 29.76 in 10.0 mi SW 3.5 mph - N/A   Unknown
8:35 PM 46.4 °F 44.3 °F 39.2 °F 76% 29.76 in 10.0 mi WSW 4.6 mph - N/A   Unknown
8:55 PM 46.4 °F 44.3 °F 39.2 °F 76% 29.77 in 10.0 mi WSW 4.6 mph - N/A   Clear
9:15 PM 48.2 °F - 37.4 °F 66% 29.77 in 10.0 mi WSW 5.8 mph - N/A   Clear
9:35 PM 48.2 °F - 37.4 °F 66% 29.78 in 10.0 mi West 6.9 mph - N/A   Unknown
9:55 PM 50.0 °F - 37.4 °F 62% 29.78 in 10.0 mi West 8.1 mph - N/A   Unknown
10:15 PM 48.2 °F - 35.6 °F 62% 29.79 in 10.0 mi West 9.2 mph - N/A   Unknown
10:35 PM 48.2 °F - 35.6 °F 62% 29.79 in 10.0 mi West 5.8 mph - N/A   Unknown
10:55 PM 46.4 °F 42.9 °F 35.6 °F 66% 29.80 in 10.0 mi West 6.9 mph - N/A   Clear
11:15 PM 46.4 °F 43.5 °F 35.6 °F 66% 29.80 in 10.0 mi West 5.8 mph - N/A   Clear
11:35 PM 46.4 °F 44.3 °F 35.6 °F 66% 29.80 in 10.0 mi West 4.6 mph - N/A   Unknown
11:55 PM 44.6 °F 41.4 °F 35.6 °F 71% 29.80 in 10.0 mi West 5.8 mph - N/A   Unknown